Theta_e
349 351 350 350 353 353 351 350 351 350 350 351 351 351 351 351 351 352 352 352 351 352 351 351 354 350 350 351 351 351 349 347 347
345 349 350 350 351 350 349 349 350 350 350 351 351 351 351 351 351 352 352 351 351 352 352 352 353 351 350 350 352 352 350 348 347
341 343 346 348 350 350 349 348 349 350 350 350 351 351 351 351 351 351 351 352 352 351 351 351 352 349 350 349 352 352 350 348 346
338 340 342 343 348 349 349 348 348 350 350 351 351 351 351 351 351 352 352 352 352 351 351 350 351 350 350 350 352 352 351 349 347
336 340 343 342 342 345 346 348 348 348 350 351 351 351 352 352 352 352 352 353 352 351 351 350 351 351 351 353 353 351 351 351 347
334 336 339 341 341 343 347 347 347 347 348 350 351 351 352 353 353 353 353 353 353 352 351 351 352 353 352 353 354 352 350 351 349
332 335 340 342 343 346 347 345 346 346 347 348 350 351 352 353 354 354 354 354 353 352 352 352 351 351 352 352 353 353 351 351 351
334 334 337 342 344 349 350 347 347 346 346 348 349 351 352 354 354 354 354 354 354 353 353 352 352 351 352 352 353 352 351 352 351
335 331 334 337 343 346 346 348 347 346 347 347 349 351 351 353 354 355 354 354 354 354 354 353 353 352 352 352 351 351 350 351 350
335 333 334 335 336 341 346 344 345 346 347 347 349 351 352 352 354 355 355 355 355 355 355 354 354 353 352 352 351 349 349 350 350
333 334 334 336 332 337 341 340 340 344 346 348 350 351 352 352 353 354 354 355 355 355 355 355 355 354 353 352 352 350 347 350 350
332 333 335 334 330 331 336 340 342 344 347 349 351 352 353 353 352 353 354 355 355 355 355 355 356 355 354 353 353 351 349 349 348
329 328 330 333 330 333 335 339 341 345 347 350 353 353 353 353 353 354 355 356 356 356 355 355 355 355 355 354 353 352 350 349 348
331 333 333 330 332 340 342 342 343 347 348 352 351 353 354 355 355 355 356 356 356 357 357 356 355 355 356 354 353 354 351 350 349
339 345 343 333 339 340 341 345 346 350 353 350 351 353 355 357 356 356 356 357 357 357 357 358 357 357 356 356 355 352 353 350 350
353 357 356 355 356 351 347 347 349 351 351 350 351 353 355 357 357 358 358 357 357 357 358 359 359 358 357 356 355 354 352 352 351
360 355 357 356 355 355 351 350 352 353 352 350 352 354 356 357 358 358 359 359 357 358 358 358 359 360 359 357 356 354 352 350 350
351 347 344 341 341 340 339 339 340 343 351 355 353 351 352 354 356 357 359 359 359 358 357 359 359 359 358 358 350 345 349 345 335
346 347 346 346 344 343 340 338 337 339 340 346 355 356 352 350 350 353 355 359 353 358 359 359 358 358 358 357 349 341 340 336 336
339 343 343 344 341 342 342 343 342 339 342 343 344 346 349 348 347 350 351 350 349 350 350 357 357 357 357 356 342 339 336 330 330
Wind_Speed
20 22 24 26 25 28 31 36 36 36 36 37 37 39 39 39 38 33 34 29 26 24 21 22 21 24 22 19 20 20 17 14 15
18 22 23 26 26 30 32 34 37 39 39 38 37 39 39 38 38 36 33 32 33 28 25 22 23 25 25 22 21 22 19 15 18
19 20 21 22 23 29 35 37 40 39 40 40 41 40 40 40 41 41 39 33 33 32 28 30 24 26 24 24 22 23 22 18 18
20 19 20 21 21 30 35 35 34 38 40 40 38 40 40 38 37 37 36 36 36 36 34 35 32 30 25 25 23 23 25 23 20
13 15 17 18 20 22 27 32 33 37 38 40 43 43 41 41 39 39 38 39 38 37 36 37 36 34 29 26 25 25 27 26 23
12 12 14 14 14 17 20 29 33 36 40 43 41 39 39 38 39 38 39 39 38 37 37 37 34 33 33 28 27 27 27 29 29
10 10 11 10 12 15 18 27 31 35 37 38 38 39 40 40 41 43 41 39 39 39 40 35 37 38 36 32 30 30 29 29 29
10 11 11 11 12 13 14 20 26 32 33 34 38 37 37 42 41 39 38 38 38 39 37 40 40 39 37 34 31 32 32 30 30
15 14 14 13 11 12 15 20 27 31 33 36 37 38 42 39 37 38 40 39 39 38 38 38 37 37 39 38 37 37 39 38 33
16 15 14 13 13 13 13 23 30 31 37 33 36 39 37 35 35 37 39 37 37 38 38 37 38 38 39 40 42 43 47 45 37
20 18 18 15 15 13 21 27 27 32 28 35 37 35 32 31 33 35 36 37 40 39 38 39 39 38 39 39 42 46 50 48 44
19 19 17 14 19 17 16 19 26 25 26 28 28 31 33 35 39 37 35 37 40 39 37 36 37 34 34 39 40 44 48 47 43
21 18 15 12 16 13 14 16 20 24 27 27 29 33 38 35 33 34 36 38 35 34 35 35 33 34 36 38 38 40 46 46 39
12 12 12 15 11 9 7 10 20 23 23 26 32 21 22 25 28 31 30 27 26 25 26 27 33 34 35 38 39 36 42 47 41
7 7 5 6 7 5 2 6 18 16 17 18 16 19 23 25 27 27 26 27 25 25 23 27 28 29 27 28 31 37 36 43 46
8 8 8 9 11 13 10 7 12 13 11 12 15 18 20 21 24 25 26 28 28 26 30 33 32 29 29 31 37 40 46 43 44
8 8 10 12 12 14 13 14 14 10 8 8 11 15 18 20 22 23 26 26 29 30 26 32 31 29 28 26 25 28 31 37 31
10 10 12 13 11 11 14 12 13 10 8 7 9 11 14 17 20 23 23 29 30 28 34 40 33 32 29 24 22 30 31 30 30
10 9 10 12 12 13 11 11 9 6 5 5 6 5 7 10 13 17 23 23 26 34 36 37 41 34 30 26 33 32 33 37 38
12 12 12 12 12 12 11 9 8 3 2 1 2 3 3 3 5 8 11 14 17 17 30 31 33 38 38 41 38 37 44 44 41
Wind_Direction
213 209 212 212 209 208 203 205 205 203 205 208 208 210 213 216 218 217 220 222 222 223 221 220 216 220 224 230 227 224 229 228 219
212 215 212 215 210 208 206 204 204 203 204 208 207 210 212 214 216 215 217 217 221 225 222 222 220 223 226 228 226 224 225 218 222
216 220 218 217 213 212 210 207 205 203 205 206 206 208 210 212 213 216 216 215 218 218 219 226 222 225 226 226 227 221 221 216 220
215 217 220 217 214 213 212 211 209 207 204 203 204 207 208 211 214 215 214 213 218 221 221 228 225 229 226 223 223 219 219 216 215
238 227 222 215 218 214 213 210 208 207 205 205 206 206 206 208 211 210 211 211 215 219 218 225 228 227 226 221 220 220 218 216 216
238 231 232 223 224 215 211 208 208 206 205 209 208 205 205 208 208 209 210 211 212 213 216 220 220 221 222 219 218 219 221 221 220
257 239 230 221 219 212 211 211 207 206 209 209 207 206 205 207 208 210 210 210 209 210 214 212 218 221 220 220 219 221 223 222 221
287 273 257 219 218 216 211 208 208 207 210 205 205 204 205 210 210 209 208 209 209 211 208 213 217 216 217 218 218 221 221 219 218
276 260 255 250 226 217 214 210 207 204 206 205 199 201 208 209 207 205 206 207 206 206 209 210 210 210 212 212 216 220 224 226 217
251 249 239 244 238 225 216 214 212 205 204 199 201 204 208 205 204 206 205 206 205 206 207 208 209 211 211 213 218 220 228 228 221
247 249 253 248 246 239 228 228 222 217 202 196 200 205 206 207 205 207 206 202 207 207 206 207 207 211 212 214 219 221 229 230 227
245 251 256 250 253 252 246 224 218 204 200 198 197 204 205 205 203 205 205 207 210 208 203 207 211 212 212 214 218 223 226 226 224
238 244 243 246 248 240 246 233 212 192 196 192 201 205 209 208 207 207 208 212 211 207 208 208 208 210 214 219 222 222 222 224 218
251 254 243 230 219 222 241 212 196 195 190 199 209 212 211 211 210 212 214 215 213 215 218 219 209 212 212 215 217 219 223 226 214
230 193 154 168 151 145 133 187 192 188 191 198 196 196 201 204 207 210 213 205 204 206 215 222 218 216 220 222 220 220 226 222 225
190 155 119 125 129 114 99 111 165 159 163 174 184 191 202 208 210 208 203 200 201 203 200 215 215 217 214 218 219 217 219 220 226
148 133 122 123 119 101 91 90 103 121 158 162 180 196 201 206 207 207 207 206 197 196 214 223 219 213 217 217 222 216 215 215 223
121 118 115 114 105 100 98 94 86 83 90 122 171 194 201 207 211 208 207 209 210 217 213 219 217 216 214 209 193 194 192 193 155
110 111 113 104 101 98 94 94 93 87 82 103 139 152 186 204 212 213 215 207 214 216 220 224 223 220 213 207 196 173 161 152 151
102 100 98 95 94 96 97 88 86 90 54 105 167 177 183 178 192 219 215 207 211 216 227 226 225 221 215 213 181 169 153 148 143